Starlink 3299

operational
NORAD ID: 50831 Int'l Des: 2022-001 Owner: SPXS Country: US Constellation: starlink
LEOCIRCULAR

Starlink 3299について

説明を読み込み中...

リアルタイム位置

3D地球を読み込み中...

次回通過

高度履歴

Altitude vs Time

uPlot chart will show altitude changes over time

軌道要素

1 50831U 22001AE 25306.48131580 .00003374 00000-0 23005-3 0 9998
2 50831 53.2185 20.2480 0001442 102.1727 257.9426 15.08828129211205
Epoch: Nov 2, 2025 • Age: 29 hours

現在のステータス

高度 545.4 km
速度 7.60 km/s
衛星直下点 53.30°N, 176.99°E
打ち上げ日 Jan 6, 2022
運用期間 3.8 years
タイプ internet

技術仕様

分類 Payload
質量 297.00 kg
乾燥質量 275.00 kg
総質量 297.00 kg
長さ 0.20 m
直径 2.80 m
スパン 9.00 m
形状 Box + pan
製造者 SPXS
バスタイプ Starlink
フェーズステータス In Orbit
所有者/国 SPXS/US

大規模コンステレーション

Loading constellations...